Location: Burgerwiesen
(48.6500°N, 15.6167°E)
Time: 05:08:09
(UTC+00:00)

Cosmos 1741 Rocket - Pass Details

Date: 09 April 2020
Orbit: 762 x 782 km, 74.0° (Epoch: 01 June)

Event Time Altitude Azimuth Distance (km) Brightness Sun altitude
Exits shadow 19:40:59 23° 173° (S) 1,622 5.3 -18.7°
Maximum altitude 19:44:08 52° 106° (ESE) 966 4.1 -19.1°
Drops below altitude 10° 19:49:18 10° 31° (NNE) 2,347 6.6 -19.8°
Sets 19:51:44 0° 27° (NNE) 3,278 7.4 -20.1°
